FW4413 Weather Reports


time (UTC)temp
C
wind
direction
speed
KPH
gust
KPH
rain 1hr
cm
rain 24hr
cm
rain mn
cm
humidity
%
barometer
mb
20260506014114 10 183 4.8 9.7 0.00 0.86 0.00 92 1007.2
20260506013611 10 217 4.8 9.7 0.00 0.86 0.00 92 1007.3
20260506013110 10 217 4.8 11.3 0.00 0.86 0.00 92 1007.3
20260506012609 11 217 3.2 11.3 0.00 0.86 0.00 92 1007.3
20260506012109 11 217 3.2 9.7 0.00 0.86 0.00 92 1007.4
20260506011608 11 210 4.8 11.3 0.00 0.86 0.00 92 1007.4
20260506011104 11 227 4.8 11.3 0.00 0.86 0.00 91 1007.4
20260506010608 11 211 3.2 9.7 0.00 0.86 0.00 91 1007.4
20260506010114 11 238 3.2 6.4 0.00 0.86 0.00 91 1007.5
20260506005606 11 217 3.2 11.3 0.00 0.86 0.00 92 1007.4
20260506005246 11 239 3.2 6.4 0.00 0.86 0.00 91 1007.6
20260506005129 11 185 3.2 11.3 0.00 0.86 0.00 91 1007.5
20260506004403 11 217 3.2 6.4 0.00 0.86 0.00 91 1007.6
20260506004151 11 239 3.2 6.4 0.00 0.86 0.00 91 1007.6
20260506003104 11 246 4.8 11.3 0.00 0.86 0.00 91 1007.6
20260506002557 11 217 6.4 11.3 0.00 0.86 0.00 91 1007.7
20260506002050 11 216 6.4 14.5 0.00 0.86 0.00 92 1007.8
20260506001549 11 246 6.4 14.5 0.00 0.86 0.00 92 1007.8
20260506001240 11 189 1.6 6.4 0.00 0.86 0.00 92 1007.8
20260506001105 11 212 3.2 12.9 0.00 0.86 0.00 92 1007.9
20260506000057 11 223 1.6 4.8 0.00 0.86 0.00 92 1007.8
20260505234545 11 241 4.8 9.7 0.00 0.86 0.00 92 1007.9
20260505234040 11 241 4.8 9.7 0.00 0.86 0.00 92 1008.0
20260505233543 11 231 3.2 8.0 0.00 0.86 0.00 92 1008.0
20260505233159 11 240 3.2 8.0 0.00 0.86 0.00 93 1007.9
20260505233101 11 264 3.2 8.0 0.00 0.86 0.00 92 1007.9
20260505232037 11 238 3.2 8.0 0.00 0.86 0.00 93 1007.9
20260505231534 11 227 3.2 8.0 0.00 0.86 0.00 93 1007.9
20260505231034 11 248 3.2 6.4 0.00 0.86 0.00 93 1007.9
20260505230712 11 239 1.6 6.4 0.00 0.86 0.00 93 1007.9
20260505230603 10 257 3.2 6.4 0.00 0.86 0.00 93 1007.9
20260505225529 11 217 1.6 4.8 0.00 0.86 0.00 93 1007.9
20260505225034 11 217 1.6 6.4 0.00 0.86 0.00 93 1008.0
20260505224536 11 217 0.0 6.4 0.00 0.86 0.00 93 1007.9
20260505224025 10 217 0.0 3.2 0.00 0.86 0.00 93 1007.9
20260505223517 10 217 0.0 1.6 0.00 0.86 0.00 93 1007.9
20260505223014 10 217 0.0 1.6 0.00 0.86 0.00 93 1008.0
20260505222516 10 217 0.0 1.6 0.00 0.86 0.00 93 1007.9
20260505222011 10 217 0.0 1.6 0.00 0.86 0.00 93 1007.9
20260505221518 10 217 0.0 0.0 0.00 0.86 0.00 93 1007.9
20260505221112 10 217 0.0 1.6 0.00 0.86 0.00 93 1007.9
20260505221029 10 217 0.0 0.0 0.00 0.86 0.00 93 1007.8
20260505220006 10 217 0.0 1.6 0.00 0.86 0.00 93 1008.0
20260505215502 10 217 0.0 3.2 0.00 0.86 0.86 93 1008.0
20260505215009 10 217 1.6 3.2 0.00 0.86 0.86 93 1008.0
20260505214510 10 217 1.6 3.2 0.00 0.86 0.86 93 1008.1
20260505214002 10 217 1.6 4.8 0.00 0.86 0.86 93 1008.1
20260505213624 10 217 1.6 4.8 0.00 0.86 0.86 93 1008.1
20260505213049 10 217 1.6 4.8 0.00 0.86 0.86 93 1008.1
20260505212016 10 322 0.0 3.2 0.00 0.86 0.86 93 1008.1
20260505211616 10 322 0.0 0.0 0.00 0.86 0.86 93 1008.3
20260505211528 10 322 0.0 3.2 0.00 0.86 0.86 93 1008.2
20260505210517 10 322 0.0 1.6 0.00 0.86 0.86 93 1008.2
20260505210400 10 322 0.0 3.2 0.00 0.86 0.86 92 1008.1
20260505210343 11 322 0.0 3.2 0.00 0.86 0.86 93 1008.2
20260505210331 10 322 0.0 3.2 0.00 0.86 0.86 92 1008.2
20260505210123 10 322 0.0 1.6 0.00 0.86 0.86 92 1008.2
20260505203704 10 322 0.0 1.6 0.00 0.86 0.86 92 1008.1
20260505203636 11 322 0.0 1.6 0.00 0.86 0.86 92 1008.1
20260505201949 11 322 0.0 1.6 0.00 0.86 0.86 92 1008.1
20260505201447 11 322 0.0 0.0 0.00 0.86 0.86 92 1008.0
20260505200948 11 322 0.0 0.0 0.00 0.86 0.86 91 1008.0
20260505200446 11 322 0.0 1.6 0.00 0.86 0.86 91 1007.9
20260505195944 11 322 0.0 1.6 0.00 0.86 0.86 91 1007.8
20260505195443 11 322 0.0 1.6 0.00 0.86 0.86 91 1007.6
20260505194937 11 322 0.0 1.6 0.00 0.86 0.86 90 1007.6
20260505194443 11 322 0.0 3.2 0.00 0.86 0.86 90 1007.6
20260505193607 11 309 3.2 9.7 0.00 0.86 0.86 90 1007.3
20260505191930 11 303 4.8 14.5 0.03 0.86 0.86 90 1007.3
20260505191430 11 337 6.4 14.5 0.05 0.86 0.86 90 1007.3
20260505191216 11 308 6.4 14.5 0.10 0.86 0.86 90 1007.4
20260505191016 11 334 6.4 14.5 0.08 0.86 0.86 90 1007.3
20260505185931 11 329 6.4 17.7 0.15 0.86 0.86 90 1007.2
20260505185424 11 327 6.4 17.7 0.23 0.86 0.86 89 1007.3
20260505184918 11 323 6.4 14.5 0.36 0.86 0.86 89 1007.4
20260505184521 11 305 4.8 14.5 0.53 0.86 0.86 89 1007.6
20260505183939 11 329 1.6 8.0 0.79 0.86 0.86 90 1007.8
20260505183038 11 36 0.0 11.3 0.84 0.84 0.84 89 1008.0
20260505182926 11 337 0.0 11.3 0.84 0.84 0.84 89 1008.1
20260505181911 11 39 3.2 12.9 0.84 0.84 0.84 88 1007.9
20260505181409 12 288 8.0 19.3 0.81 0.81 0.79 88 1007.9
20260505180906 12 289 11.3 19.3 0.79 0.79 0.79 87 1007.8
20260505180405 12 264 12.9 33.8 0.76 0.76 0.74 87 1007.8
20260505175905 12 265 12.9 33.8 0.71 0.71 0.69 86 1007.9
20260505175405 12 258 14.5 29.0 0.61 0.61 0.61 85 1007.7
20260505174903 12 286 14.5 29.0 0.48 0.48 0.43 83 1007.6
20260505174802 13 241 14.5 35.4 0.08 0.08 0.05 78 1007.9
20260505174757 15 173 14.5 35.4 0.00 0.00 0.00 72 1007.8
20260505174506 13 247 14.5 30.6 0.33 0.33 0.25 81 1007.7
20260505172904 16 277 9.7 32.2 0.00 0.00 0.00 65 1007.8
20260505172402 16 241 1.6 11.3 0.00 0.00 0.00 67 1006.9
20260505171903 17 322 1.6 8.0 0.00 0.00 0.00 67 1006.5
20260505171403 17 326 3.2 9.7 0.00 0.00 0.00 67 1006.5
20260505170904 17 352 3.2 9.7 0.00 0.00 0.00 67 1006.4
20260505170359 17 331 1.6 6.4 0.00 0.00 0.00 67 1006.4
20260505165852 17 332 1.6 8.0 0.00 0.00 0.00 67 1006.3
20260505164848 17 347 3.2 8.0 0.00 0.00 0.00 66 1006.4
20260505164348 17 28 3.2 12.9 0.00 0.00 0.00 67 1006.4
20260505163842 17 51 3.2 12.9 0.00 0.00 0.00 67 1006.4
20260505163551 17 44 4.8 14.5 0.00 0.00 0.00 67 1006.6
20260505163415 17 35 3.2 14.5 0.00 0.00 0.00 68 1006.5
20260505162342 17 1 4.8 14.5 0.00 0.00 0.00 66 1006.7
20260505161938 18 30 8.0 24.1 0.00 0.00 0.00 66 1006.8
20260505161903 17 37 8.0 19.3 0.00 0.00 0.00 66 1006.7
20260505161526 18 56 9.7 24.1 0.00 0.00 0.00 66 1006.7
20260505160410 18 22 8.0 20.9 0.00 0.00 0.00 66 1006.8
20260505153335 18 16 4.8 12.9 0.00 0.00 0.00 67 1006.9
20260505152833 18 77 6.4 11.3 0.00 0.00 0.00 67 1007.0
20260505152328 18 48 6.4 14.5 0.00 0.00 0.00 68 1007.1
20260505152052 18 39 3.2 14.5 0.00 0.00 0.00 68 1007.1
20260505151901 18 18 4.8 14.5 0.00 0.00 0.00 68 1007.1
20260505151119 18 44 6.4 19.3 0.00 0.00 0.00 66 1007.2
20260505150907 18 342 6.4 19.3 0.00 0.00 0.00 67 1007.2
20260505140310 18 338 3.2 14.5 0.00 0.00 0.00 62 1007.4
20260505124809 20 332 4.8 22.5 0.00 0.00 0.00 58 1008.0
20260505124433 20 313 6.4 17.7 0.00 0.00 0.00 58 1008.0
20260505124334 20 338 4.8 16.1 0.00 0.00 0.00 59 1008.0
20260505123302 19 328 8.0 17.7 0.00 0.00 0.00 58 1008.0
20260505122803 19 320 6.4 16.1 0.00 0.00 0.00 58 1008.0
20260505122305 19 335 6.4 14.5 0.00 0.00 0.00 59 1008.0
20260505121802 19 326 6.4 20.9 0.00 0.00 0.00 59 1008.1
20260505121301 19 333 6.4 20.9 0.00 0.00 0.00 59 1008.1
20260505120802 20 13 4.8 17.7 0.00 0.00 0.00 59 1008.1
20260505120310 20 318 4.8 20.9 0.00 0.00 0.00 60 1008.1
20260505115802 20 2 8.0 20.9 0.00 0.00 0.00 58 1008.2
20260505115556 20 330 9.7 20.9 0.00 0.00 0.00 57 1008.2
20260505115346 20 326 11.3 20.9 0.00 0.00 0.00 57 1008.1
20260505114303 20 317 6.4 19.3 0.00 0.00 0.00 57 1008.2
20260505113801 21 323 3.2 11.3 0.00 0.00 0.00 56 1008.3
20260505113302 20 43 3.2 11.3 0.00 0.00 0.00 52 1008.2
20260505112758 20 42 4.8 12.9 0.00 0.00 0.00 51 1008.3
20260505112258 20 49 3.2 12.9 0.00 0.00 0.00 54 1008.4
20260505111803 20 22 1.6 8.0 0.00 0.00 0.00 56 1008.4
20260505111256 20 348 3.2 9.7 0.00 0.00 0.00 58 1008.4
20260505110757 19 32 3.2 16.1 0.00 0.00 0.00 59 1008.4
20260505110257 19 29 4.8 16.1 0.00 0.00 0.00 58 1008.4
20260505110230 20 351 4.8 14.5 0.00 0.00 0.00 59 1008.5
20260505101236 20 89 6.4 11.3 0.00 0.00 0.00 55 1008.9
20260505100736 19 44 6.4 12.9 0.00 0.00 0.00 56 1008.9
20260505100233 19 108 8.0 14.5 0.00 0.00 0.00 57 1009.0
20260505095731 19 76 8.0 17.7 0.00 0.00 0.00 57 1009.1
20260505095232 19 69 6.4 17.7 0.00 0.00 0.00 59 1009.0
20260505094735 19 80 3.2 12.9 0.00 0.00 0.00 58 1009.1
20260505094233 19 31 4.8 9.7 0.00 0.00 0.00 61 1009.1
20260505093729 18 94 6.4 12.9 0.00 0.00 0.00 58 1009.2
20260505093229 18 100 6.4 14.5 0.00 0.00 0.00 60 1009.3
20260505092734 18 106 4.8 14.5 0.00 0.00 0.00 60 1009.3
20260505092236 18 62 4.8 14.5 0.00 0.00 0.00 60 1009.3
20260505091729 18 70 4.8 14.5 0.00 0.00 0.00 61 1009.4
20260505091232 18 99 4.8 14.5 0.00 0.00 0.00 62 1009.4
20260505090734 18 90 4.8 12.9 0.00 0.00 0.00 61 1009.5
20260505090317 18 92 6.4 14.5 0.00 0.00 0.00 62 1009.5
20260505085936 18 64 6.4 14.5 0.00 0.00 0.00 63 1009.7
20260505085333 18 91 4.8 11.3 0.00 0.00 0.00 63 1009.8
20260505084218 17 124 3.2 8.0 0.00 0.00 0.00 67 1009.9
20260505083716 17 96 1.6 6.4 0.00 0.00 0.00 69 1009.8
20260505083216 17 145 3.2 8.0 0.00 0.00 0.00 69 1009.9
20260505082713 17 113 4.8 9.7 0.00 0.00 0.00 68 1009.9
20260505082216 17 80 4.8 9.7 0.00 0.00 0.00 70 1009.9
20260505081713 16 124 4.8 11.3 0.00 0.00 0.00 71 1009.9
20260505081216 16 146 3.2 11.3 0.00 0.00 0.00 70 1010.0
20260505080713 16 114 3.2 6.4 0.00 0.00 0.00 72 1010.0
20260505080207 16 58 3.2 6.4 0.00 0.00 0.00 73 1010.1
20260505075706 16 90 3.2 6.4 0.00 0.00 0.00 73 1010.1
20260505075207 16 62 1.6 6.4 0.00 0.00 0.00 73 1010.1
20260505074706 16 347 1.6 6.4 0.00 0.00 0.00 73 1010.2
20260505073713 15 61 3.2 9.7 0.00 0.00 0.00 77 1010.2
20260505073207 15 317 1.6 6.4 0.00 0.00 0.00 75 1010.2
20260505072709 15 329 3.2 8.0 0.00 0.00 0.00 78 1010.3
20260505072214 15 305 1.6 8.0 0.00 0.00 0.00 78 1010.4
20260505071702 15 18 1.6 8.0 0.00 0.00 0.00 80 1010.4
20260505071205 14 331 3.2 9.7 0.00 0.00 0.00 80 1010.4
20260505070659 14 326 4.8 9.7 0.00 0.00 0.00 80 1010.4
20260505070158 13 307 3.2 6.4 0.00 0.00 0.00 81 1010.5
20260505065651 13 326 1.6 6.4 0.00 0.00 0.00 81 1010.5
20260505065252 13 331 3.2 8.0 0.00 0.00 0.00 81 1010.5
20260505065204 13 331 1.6 6.4 0.00 0.00 0.00 81 1010.4
20260505064145 13 328 3.2 8.0 0.00 0.00 0.00 81 1010.5
20260505063644 13 327 1.6 8.0 0.00 0.00 0.00 81 1010.6
20260505063143 13 335 1.6 6.4 0.00 0.00 0.00 82 1010.6
20260505062648 13 328 1.6 8.0 0.00 0.00 0.00 82 1010.6
20260505062145 13 67 1.6 8.0 0.00 0.00 0.00 82 1010.7
20260505061643 13 325 1.6 8.0 0.00 0.00 0.00 83 1010.7
20260505061531 13 336 1.6 6.4 0.00 0.00 0.00 83 1010.7
20260505061524 13 333 1.6 8.0 0.00 0.00 0.00 83 1010.8
20260505061449 13 253 1.6 8.0 0.00 0.00 0.00 82 1010.8
20260505061307 13 21 0.0 4.8 0.00 0.00 0.00 82 1010.7
20260505054907 13 328 1.6 8.0 0.00 0.00 0.00 82 1010.7
20260505053129 12 286 1.6 9.7 0.00 0.00 0.00 84 1010.6
20260505052630 12 325 1.6 11.3 0.00 0.00 0.00 85 1010.6
20260505052132 12 323 3.2 11.3 0.00 0.00 0.00 84 1010.6
20260505051630 12 17 1.6 9.7 0.00 0.00 0.00 84 1010.5
20260505051130 12 333 1.6 4.8 0.00 0.00 0.00 85 1010.6
20260505050619 12 327 0.0 8.0 0.00 0.00 0.00 85 1010.6
20260505050114 12 326 0.0 8.0 0.00 0.00 0.00 86 1010.6
20260505041108 12 321 11.3 19.3 0.00 0.00 0.00 84 1010.7
20260505040755 12 326 12.9 20.9 0.00 0.00 0.00 84 1010.8
20260505040637 12 324 12.9 20.9 0.00 0.00 0.00 84 1010.8
20260505035604 12 315 11.3 22.5 0.00 0.00 0.00 84 1010.8
20260505035107 12 333 9.7 22.5 0.00 0.00 0.00 84 1010.8
20260505034601 12 331 8.0 20.9 0.00 0.00 0.00 84 1010.8
20260505034237 12 335 6.4 16.1 0.00 0.00 0.00 83 1011.0
20260505034137 12 333 6.4 16.1 0.00 0.00 0.00 84 1010.9
20260505033103 12 323 4.8 14.5 0.00 0.00 0.00 83 1011.1
20260505032603 12 317 6.4 16.1 0.00 0.00 0.00 82 1011.0
20260505032101 12 330 8.0 17.7 0.00 0.00 0.00 82 1011.0
20260505031602 12 326 9.7 19.3 0.00 0.00 0.00 82 1011.0
20260505031105 12 325 11.3 20.9 0.00 0.00 0.00 81 1011.0
20260505030605 12 319 12.9 20.9 0.00 0.00 0.00 81 1011.0
20260505030111 12 334 11.3 20.9 0.00 0.00 0.00 81 1011.0
20260505025817 12 322 12.9 19.3 0.00 0.00 0.00 81 1011.1
20260505025654 12 328 11.3 20.9 0.00 0.00 0.00 81 1011.1
20260505024728 12 325 12.9 19.3 0.00 0.00 0.00 80 1011.1
20260505024145 12 322 12.9 20.9 0.00 0.00 0.00 80 1011.1
20260505023803 12 326 12.9 20.9 0.00 0.00 0.00 80 1011.2
20260505022636 12 320 11.3 20.9 0.00 0.00 0.00 81 1011.2
20260505021602 13 317 11.3 20.9 0.00 0.00 0.00 80 1011.3
20260505021331 13 331 9.7 17.7 0.00 0.00 0.00 80 1011.5
20260505021150 13 321 11.3 19.3 0.00 0.00 0.00 80 1011.4
20260505020107 13 323 8.0 17.7 0.00 0.00 0.00 80 1011.6
20260505015743 13 324 9.7 16.1 0.00 0.00 0.00 80 1011.4
20260505015633 13 317 8.0 16.1 0.00 0.00 0.00 80 1011.5
20260505014604 13 317 8.0 16.1 0.00 0.00 0.00 80 1011.4
20260505014557 13 305 3.2 8.0 0.00 0.00 0.00 79 1011.6